Theta_e
337 346 359 358 358 358 357 357 357 357 355 352 352 350 349 348 347 350 350 349 348 347 347 347 346 346 346 347 347 345 342 341 341 342 342 343 340 340 340 337 337 334 343
341 349 359 359 358 358 359 358 358 356 355 352 351 349 347 347 347 350 348 346 345 344 344 345 345 343 343 345 344 343 341 338 337 337 337 338 341 340 338 338 338 335 343
346 350 355 359 359 359 359 356 355 355 355 353 349 348 346 346 347 350 347 347 346 343 342 342 341 341 341 344 343 342 341 339 339 339 338 331 334 337 339 339 338 339 339
349 352 353 359 360 359 358 356 356 354 352 350 348 346 344 347 348 351 349 347 344 340 339 338 338 338 340 341 340 339 338 336 337 336 329 332 334 338 337 341 344 343 342
348 350 354 359 359 358 358 357 355 353 351 349 347 344 346 350 350 351 349 346 342 339 338 338 338 337 338 338 339 339 338 337 337 330 328 329 332 340 344 345 345 346 344
345 347 355 358 358 357 357 356 355 352 350 348 344 343 349 352 352 351 347 343 341 339 339 340 339 338 338 339 339 339 339 338 332 326 327 328 330 345 346 344 344 342 341
345 347 353 358 357 357 357 356 354 351 348 346 342 343 349 351 350 347 344 342 340 339 340 340 339 338 338 338 338 336 338 334 325 322 321 322 325 344 344 342 341 339 338
346 348 351 355 356 356 356 354 353 351 348 344 344 346 348 349 347 344 342 341 340 340 340 339 338 337 337 337 337 332 336 331 322 319 320 320 330 337 342 339 337 335 334
343 343 345 351 351 352 353 352 351 351 348 345 345 347 346 345 345 344 342 341 340 341 339 337 335 335 337 336 334 330 331 327 316 315 318 318 329 332 340 339 336 336 333
337 337 337 340 343 343 349 349 349 348 346 345 345 343 341 341 342 342 343 343 341 340 337 335 333 334 334 333 330 327 324 322 315 322 325 326 332 335 341 337 335 333 332
334 333 334 335 336 337 340 344 346 345 343 342 341 338 336 332 334 335 336 339 343 341 336 333 332 332 332 328 326 324 316 307 308 322 326 334 338 339 341 339 334 334 332
328 330 332 333 333 333 337 338 341 340 337 335 334 331 329 329 331 334 332 336 340 340 337 334 332 332 323 310 306 309 304 304 310 320 326 336 340 341 340 339 332 329 328
328 330 331 332 332 332 333 334 335 334 333 332 331 329 327 328 328 329 328 330 331 333 328 329 325 319 313 308 306 303 301 304 308 321 328 337 342 341 339 335 331 329 329
328 330 331 331 331 330 331 331 333 332 330 329 329 329 326 324 324 325 325 326 328 329 326 323 321 318 314 310 307 307 305 303 310 320 324 332 340 339 338 332 332 331 329
327 329 330 330 330 329 328 330 330 331 330 329 328 328 326 324 322 323 324 325 326 327 326 323 321 319 317 315 311 308 305 302 303 312 321 327 333 338 338 335 334 331 329
329 329 331 330 329 328 328 328 329 330 332 330 328 328 327 325 323 323 322 324 325 326 326 325 322 321 319 317 315 311 305 302 302 307 318 321 329 334 336 335 334 332 330
328 331 331 331 330 327 327 328 328 329 332 331 331 330 329 327 325 323 323 322 324 325 326 325 324 321 319 318 313 310 306 303 302 304 313 318 321 328 333 335 334 333 331
328 329 331 335 333 328 327 328 328 328 329 332 331 331 331 330 328 325 323 323 324 324 324 324 323 321 319 317 315 312 308 303 302 302 308 315 317 321 326 333 335 333 332
326 328 328 331 332 332 329 328 328 328 327 328 330 330 331 331 330 328 326 326 324 323 322 323 322 322 319 318 316 314 308 305 305 303 304 310 314 318 318 324 329 330 332
322 325 328 330 331 331 331 331 329 329 329 330 328 328 328 329 331 329 329 327 326 325 324 322 322 319 320 318 316 313 309 307 305 302 303 309 312 314 315 315 316 320 327
303 309 317 325 323 329 328 327 326 328 328 329 332 333 331 327 326 326 328 326 325 325 326 325 323 321 319 311 313 314 307 305 303 303 302 303 306 310 310 311 311 311 315
302 303 303 303 304 309 319 323 327 326 327 329 329 330 331 331 331 328 325 324 323 323 323 322 322 319 322 312 316 307 309 308 302 300 299 300 300 306 308 308 308 308 310
303 304 304 303 304 303 303 304 304 305 307 313 320 323 324 324 328 329 329 328 325 322 322 322 320 320 321 310 309 316 306 304 302 305 300 298 297 299 303 306 306 306 307
302 303 303 304 304 304 304 303 301 300 300 301 303 305 306 308 310 316 322 324 324 323 321 321 320 318 316 319 310 311 309 305 304 304 303 300 299 299 299 303 304 305 307
301 300 302 302 303 303 303 302 301 301 301 302 303 304 306 307 309 310 311 315 318 320 320 320 318 317 317 320 316 309 308 305 303 303 304 306 305 301 300 301 303 303 304
300 300 300 300 300 300 300 300 300 300 300 301 302 302 303 305 307 311 313 315 316 318 319 319 318 317 321 321 319 314 310 306 303 302 301 301 303 301 300 301 299 299 301
Wind_Speed
6 7 17 16 15 14 13 13 13 13 12 12 12 12 12 11 11 12 14 13 13 12 12 12 13 12 13 14 15 15 15 14 13 13 12 12 11 10 10 9 7 5 7
8 9 17 16 16 14 13 13 12 13 12 11 11 11 11 10 10 10 13 13 12 12 11 11 12 12 12 13 14 14 14 13 12 11 10 8 7 9 8 8 7 6 10
11 10 12 16 15 14 13 14 13 12 12 12 10 10 10 9 10 11 13 12 11 10 10 10 10 11 11 12 12 12 12 11 11 10 8 4 3 6 7 6 5 5 6
9 9 9 15 14 14 15 15 13 12 14 11 9 9 9 9 10 12 13 12 10 10 10 10 10 10 10 11 10 8 7 5 6 8 5 5 5 4 5 6 6 2 6
8 6 10 14 15 14 14 13 14 15 12 10 8 8 8 10 11 12 12 13 10 10 10 10 10 10 9 9 8 7 5 4 4 6 5 4 5 4 5 10 13 15 12
6 6 12 14 14 13 12 13 16 14 12 10 8 8 5 12 14 13 13 10 9 9 9 9 9 9 8 7 7 7 7 9 8 4 4 5 5 7 12 11 12 12 11
8 5 8 14 14 13 12 13 15 14 13 11 10 9 7 12 14 12 9 8 8 7 7 7 7 7 7 6 6 7 6 8 5 3 3 4 6 6 8 10 9 9 12
10 5 7 11 12 11 11 16 14 13 13 12 11 11 8 10 12 9 8 8 7 6 6 5 6 6 5 6 7 8 5 6 4 3 3 3 6 3 6 8 8 10 8
6 6 5 7 8 10 12 14 13 13 12 12 10 9 9 8 10 7 7 7 7 6 6 5 5 5 5 6 7 8 6 4 3 1 3 3 6 3 5 7 7 9 6
5 6 6 6 6 5 9 14 13 12 11 11 9 8 7 7 6 7 5 5 6 5 4 4 3 3 4 5 5 6 5 5 2 1 1 3 5 5 8 6 6 5 5
3 4 6 6 6 5 4 7 10 11 10 10 8 8 6 3 3 4 3 4 5 5 4 3 2 3 4 6 6 5 4 2 2 2 2 5 6 4 7 8 6 6 5
5 4 5 5 6 5 3 3 5 6 4 4 4 5 4 4 3 4 4 4 4 5 4 3 2 2 4 2 1 3 1 2 2 3 2 7 7 5 6 8 4 2 3
5 4 5 5 5 5 4 3 2 3 3 3 5 4 4 3 2 2 1 1 1 3 1 0 1 1 0 0 1 1 2 2 2 3 4 7 8 5 4 2 3 1 3
7 7 6 6 5 4 3 3 4 3 3 3 4 5 4 2 3 3 2 3 3 2 3 2 1 2 3 3 3 3 3 2 2 2 4 7 8 5 6 2 2 4 4
6 6 7 6 6 5 4 3 3 4 3 4 4 5 4 4 4 3 3 3 3 3 3 3 3 3 4 4 4 4 4 4 4 3 3 6 9 9 10 8 7 7 7
6 7 6 7 6 6 5 5 4 4 4 4 4 5 6 4 4 4 4 4 4 4 3 3 4 4 4 3 5 5 6 5 5 5 4 4 10 10 11 11 10 9 9
5 7 7 7 6 6 6 5 4 4 4 4 4 6 6 6 6 5 4 4 4 4 5 4 4 3 3 3 6 5 5 6 5 6 5 4 5 9 11 14 13 11 11
5 6 6 6 7 7 6 5 4 4 4 4 4 4 7 7 7 5 4 5 4 4 4 4 4 4 4 4 4 5 5 4 6 6 4 5 5 5 7 13 13 14 13
7 6 6 6 7 7 5 3 5 5 4 4 4 4 6 7 7 7 5 6 5 4 4 4 4 4 4 4 5 5 5 5 7 4 7 6 7 6 5 9 12 11 11
4 5 5 5 6 6 4 3 2 3 4 4 5 5 6 6 6 7 5 6 5 4 4 4 6 4 5 4 3 4 4 5 5 5 7 5 6 6 5 6 5 5 10
4 4 4 6 4 4 2 2 2 4 3 4 5 6 6 5 6 6 5 4 4 6 7 6 4 5 4 3 1 3 4 6 7 7 5 6 6 5 5 5 4 3 4
5 5 5 5 3 2 1 1 1 2 2 2 2 4 5 5 5 5 6 6 5 4 5 6 6 3 3 4 3 1 3 3 3 5 3 4 5 3 5 5 5 5 5
5 5 6 6 5 4 2 2 2 1 1 2 1 1 3 3 3 5 5 5 5 5 5 6 5 7 6 3 5 3 1 4 2 1 1 2 3 3 3 5 6 6 6
4 5 6 6 6 6 5 4 3 2 0 1 2 3 4 4 5 4 4 5 5 4 5 5 4 4 4 4 2 4 1 3 1 4 2 2 1 3 5 3 4 5 6
4 5 6 6 7 6 7 6 4 3 2 2 2 5 4 4 4 4 4 5 5 4 5 6 5 6 4 3 3 3 3 2 2 4 3 3 2 2 2 3 3 3 4
5 6 6 7 6 6 6 7 6 5 4 3 3 4 4 4 4 5 5 4 4 4 5 4 5 6 6 5 4 4 4 4 3 3 4 4 3 2 2 2 3 3 3
Wind_Direction
206 173 151 155 150 145 140 137 131 122 116 112 105 104 100 96 100 98 102 101 92 88 84 84 87 85 84 85 86 84 82 80 78 76 67 64 71 78 80 74 56 33 25
144 158 153 158 152 150 151 142 128 122 130 118 112 108 103 105 115 112 104 100 95 90 88 89 88 89 91 92 90 87 87 85 83 77 68 54 63 79 81 74 71 59 41
144 146 152 154 155 153 143 135 135 139 121 120 119 118 118 121 125 116 110 103 98 93 92 89 88 90 94 95 95 94 89 86 84 76 68 45 50 82 75 59 51 59 66
140 140 150 150 150 146 141 143 141 136 125 127 127 127 128 128 135 127 119 105 96 92 94 93 90 94 99 98 92 84 78 81 85 60 41 25 2 92 81 48 35 108 93
137 138 156 148 141 140 142 142 139 130 129 129 129 129 135 138 136 133 117 102 102 101 101 98 96 97 99 92 83 66 51 83 133 59 38 8 4 95 71 75 61 74 75
129 137 148 145 142 141 141 143 139 137 137 132 131 129 114 147 124 119 96 109 110 111 109 103 99 98 97 91 77 58 77 84 79 54 29 4 5 91 97 80 65 62 50
142 142 135 143 145 146 153 152 141 143 141 138 131 131 126 117 105 97 113 117 114 114 107 102 98 96 93 88 74 55 106 90 82 52 19 4 343 54 82 69 59 45 37
148 143 142 153 147 151 163 143 145 149 146 138 142 133 127 117 114 130 130 129 125 120 107 92 82 77 78 76 68 44 101 91 65 48 6 342 323 2 87 69 62 60 47
133 132 141 150 142 156 145 145 153 148 147 142 148 148 140 136 126 141 146 147 145 137 128 115 102 91 81 72 69 62 89 83 88 25 336 320 307 312 99 86 67 70 46
124 135 141 130 134 141 156 151 157 150 147 146 147 139 123 136 158 159 159 169 156 146 133 118 108 98 87 80 77 75 73 73 86 312 293 271 272 253 137 124 110 75 55
121 140 134 137 139 139 143 166 152 146 148 147 144 135 123 122 116 135 166 193 182 162 147 137 113 92 74 49 49 56 61 28 330 303 305 281 263 224 161 153 107 86 81
175 162 151 148 146 136 126 122 127 132 136 138 141 144 141 146 155 164 195 211 259 164 178 180 159 109 76 54 16 32 28 344 302 265 274 282 261 227 163 162 97 352 352
170 167 170 157 153 148 132 131 115 121 136 143 155 152 153 153 179 177 208 258 238 211 220 283 19 71 237 268 332 1 320 327 275 268 275 282 276 214 200 188 29 178 178
174 183 174 169 163 165 136 152 147 147 155 168 175 170 163 172 196 207 213 222 219 220 224 235 244 260 271 270 263 269 259 263 269 262 271 288 285 240 223 177 170 199 215
184 185 191 176 177 175 167 160 165 177 179 183 180 185 172 191 206 201 218 216 218 215 217 232 238 247 262 268 269 265 266 251 254 254 248 264 266 266 258 239 222 239 243
193 193 187 195 185 171 183 184 191 184 189 187 192 197 193 195 203 207 218 223 225 212 213 216 222 233 252 261 274 259 261 247 241 242 235 244 254 254 254 240 237 242 244
201 200 189 196 176 181 195 197 191 198 185 203 206 200 201 198 208 207 213 222 224 211 220 218 233 227 246 246 258 265 259 252 252 247 232 232 247 251 244 242 243 241 239
204 203 189 184 180 187 196 193 194 200 196 211 211 199 206 210 207 209 213 223 217 208 204 212 221 241 240 227 245 247 251 250 248 246 246 234 228 233 243 239 242 243 239
203 192 195 193 185 197 210 191 196 206 200 214 213 215 217 211 208 206 217 231 202 208 209 216 225 210 236 240 242 247 242 246 246 248 236 236 228 223 217 233 235 239 240
209 200 187 191 189 193 170 191 221 218 221 212 218 220 222 222 213 209 221 218 189 207 217 203 224 205 230 248 247 257 247 241 241 235 236 235 239 238 231 223 224 233 236
71 110 162 176 173 157 144 154 213 227 211 225 220 220 217 216 215 214 226 224 195 205 222 213 205 223 246 181 330 250 270 243 240 243 232 231 236 228 223 231 233 227 241
111 100 93 96 105 130 143 154 169 164 214 244 223 239 231 221 212 208 213 227 209 213 220 213 195 207 241 172 203 128 296 327 263 251 247 241 254 231 230 224 222 229 230
100 94 91 83 80 65 77 110 81 73 28 349 353 346 24 343 278 241 236 231 223 198 225 220 194 198 240 189 207 204 274 224 314 299 333 281 256 231 231 217 213 217 220
122 101 93 80 71 54 40 65 75 100 148 352 319 316 322 334 315 298 269 247 240 215 220 224 199 200 169 224 167 231 178 115 269 312 301 244 258 253 238 237 227 230 224
116 104 90 78 60 46 53 61 73 67 32 325 337 340 341 336 336 322 294 288 258 233 228 214 200 193 187 194 177 148 185 161 203 239 283 281 333 278 252 236 235 241 234
109 101 91 79 59 47 51 47 56 49 5 1 347 338 333 327 323 347 334 309 281 258 236 225 220 201 205 193 180 174 191 177 198 196 237 246 234 292 291 289 285 281 260